TimeMDT,TemperatureF,Dew PointF,Humidity,Sea Level PressureIn,VisibilityMPH,Wind Direction,Wind SpeedMPH,Gust SpeedMPH,PrecipitationIn,Events,Conditions,WindDirDegrees,DateUTC
12:53 AM,41.0,30.9,67,29.99,10.0,West,5.8,-,N/A,,Overcast,270,2012-10-09 06:53:00
2:53 AM,37.9,28.0,68,30.02,10.0,WNW,5.8,-,N/A,,Mostly Cloudy,300,2012-10-09 08:53:00
3:53 AM,36.0,27.0,70,30.04,10.0,NW,3.5,-,N/A,,Overcast,310,2012-10-09 09:53:00
4:53 AM,36.0,27.0,70,30.06,10.0,Calm,Calm,-,N/A,,Overcast,0,2012-10-09 10:53:00
5:53 AM,36.0,27.0,70,30.08,10.0,Calm,Calm,-,N/A,,Overcast,0,2012-10-09 11:53:00
6:53 AM,35.1,27.0,72,30.09,10.0,Calm,Calm,-,N/A,,Overcast,0,2012-10-09 12:53:00
7:53 AM,36.0,27.0,70,30.10,10.0,Calm,Calm,-,N/A,,Overcast,0,2012-10-09 13:53:00
8:53 AM,37.0,27.0,67,30.12,10.0,Calm,Calm,-,N/A,,Overcast,0,2012-10-09 14:53:00
9:53 AM,39.9,27.0,60,30.13,10.0,Calm,Calm,-,N/A,,Partly Cloudy,0,2012-10-09 15:53:00
10:53 AM,42.1,26.1,53,30.13,10.0,North,3.5,-,N/A,,Mostly Cloudy,360,2012-10-09 16:53:00
11:53 AM,44.1,27.0,51,30.12,10.0,NW,3.5,-,N/A,,Overcast,310,2012-10-09 17:53:00
12:53 PM,48.0,27.0,44,30.11,10.0,Calm,Calm,-,N/A,,Overcast,0,2012-10-09 18:53:00
1:53 PM,48.9,27.0,43,30.10,10.0,North,3.5,-,N/A,,Overcast,10,2012-10-09 19:53:00
2:53 PM,53.1,27.0,37,30.07,10.0,Calm,Calm,-,N/A,,Clear,0,2012-10-09 20:53:00
3:53 PM,54.0,27.0,35,30.06,10.0,Variable,3.5,-,N/A,,Clear,0,2012-10-09 21:53:00
4:53 PM,54.0,27.0,35,30.05,10.0,South,3.5,-,N/A,,Clear,190,2012-10-09 22:53:00
5:53 PM,55.0,27.0,34,30.04,10.0,Calm,Calm,-,N/A,,Clear,0,2012-10-09 23:53:00
6:53 PM,50.0,27.0,41,30.07,10.0,West,3.5,-,N/A,,Clear,280,2012-10-10 00:53:00
7:53 PM,46.0,27.0,47,30.10,10.0,Calm,Calm,-,N/A,,Clear,0,2012-10-10 01:53:00
8:53 PM,39.9,25.0,55,30.12,10.0,South,4.6,-,N/A,,Clear,170,2012-10-10 02:53:00
9:53 PM,36.0,24.1,62,30.13,10.0,ESE,4.6,-,N/A,,Clear,110,2012-10-10 03:53:00
10:53 PM,32.0,23.0,69,30.14,10.0,SE,5.8,-,N/A,,Clear,140,2012-10-10 04:53:00
11:53 PM,30.9,23.0,72,30.13,10.0,SSE,4.6,-,N/A,,Clear,160,2012-10-10 05:53:00